Sedona, AZ

4:44 PM MST on October 14, 2019 (GMT -0700)
Sedona

Weather History for KSEZ - August, 2019

Change the Weather History Date:

Thursday, August 1, 2019

  Actual Average Record
Temperature  
Mean Temperature 78 °F -  
Max Temperature 89 °F 97 °F 96 °F (2018)
Min Temperature 66 °F 65 °F 62 °F (2010)
Cooling Degree Days 12    
Growing Degree Days 28 (Base 50)    
Moisture  
Dew Point 59 °F    
Average Humidity 57    
Maximum Humidity 83    
Minimum Humidity 31    
Precipitation  
Precipitation 0.00 in - - ()
Sea Level Pressure  
Sea Level Pressure 30.20 in    
Wind  
Wind Speed 5 mph (NNE)    
Max Wind Speed 15 mph    
Max Gust Speed 21 mph    
Visibility 10 miles    
Events Rain , Thunderstorm    
Averages and records for this station are not official NWS values.
T = Trace of Precipitation, MM = Missing Value Source: NWS Daily Summary

Daily Weather History Graph

Daily Weather History Graph

Search for Another Location

Airport or City:

Astronomy

Aug. 01, 2019 Rise Set
Actual Time 5:36 AM MST 7:29 PM MST
Civil Twilight 5:09 AM MST 7:57 PM MST
Nautical Twilight 4:35 AM MST 8:30 PM MST
Astronomical Twilight 3:59 AM MST 9:06 PM MST
Moon 6:06 AM MST (8/1) 8:20 PM MST (8/1)
Length of Visible Light 14h 48m
Length of Day
13h 52m
New Moon, 1% of the Moon is Illuminated
Aug 1
New Moon
Aug 7
First Quarter
Aug 15
Full
Aug 23
Last Quarter
Aug 30
New

Hourly Weather History & Observations

Time (MST) Temp. Heat Index Dew Point Humidity Pressure Visibility Wind Dir Wind Speed Gust Speed Precip Events Conditions
12:15 AM 68.0 °F - 62.6 °F 83% 30.21 in 10.0 mi Calm Calm - N/A   Clear
12:35 AM 68.0 °F - 62.6 °F 83% 30.21 in 10.0 mi Calm Calm - N/A   Clear
12:55 AM 68.0 °F - 62.6 °F 83% 30.21 in 10.0 mi Calm Calm - N/A   Clear
1:15 AM 68.0 °F - 62.6 °F 83% 30.21 in 10.0 mi NE 3.5 mph - N/A   Clear
1:35 AM 68.0 °F - 60.8 °F 78% 30.19 in 10.0 mi NE 6.9 mph - N/A   Clear
1:55 AM 68.0 °F - 60.8 °F 78% 30.19 in 10.0 mi NE 8.1 mph - N/A   Clear
2:15 AM 68.0 °F - 59.0 °F 73% 30.19 in 10.0 mi NE 6.9 mph - N/A   Clear
2:35 AM 68.0 °F - 59.0 °F 73% 30.19 in 10.0 mi NE 8.1 mph - N/A   Clear
2:55 AM 68.0 °F - 59.0 °F 73% 30.19 in 10.0 mi NE 8.1 mph - N/A   Clear
3:15 AM 68.0 °F - 59.0 °F 73% 30.19 in 10.0 mi NE 8.1 mph - N/A   Clear
3:35 AM 66.2 °F - 59.0 °F 78% 30.19 in 10.0 mi NNE 9.2 mph - N/A   Clear
3:55 AM 68.0 °F - 59.0 °F 73% 30.19 in 10.0 mi NNE 10.4 mph - N/A   Clear
4:15 AM 68.0 °F - 59.0 °F 73% 30.19 in 10.0 mi NE 9.2 mph - N/A   Clear
4:35 AM 66.2 °F - 59.0 °F 78% 30.21 in 10.0 mi NE 6.9 mph - N/A   Clear
4:55 AM 68.0 °F - 57.2 °F 68% 30.21 in 10.0 mi NE 8.1 mph - N/A   Clear
5:15 AM 68.0 °F - 57.2 °F 68% 30.21 in 10.0 mi NNE 9.2 mph - N/A   Clear
5:35 AM 66.2 °F - 57.2 °F 73% 30.22 in 10.0 mi NNE 9.2 mph - N/A   Clear
5:55 AM 66.2 °F - 57.2 °F 73% 30.22 in 10.0 mi NNE 9.2 mph - N/A   Clear
6:15 AM 68.0 °F - 57.2 °F 68% 30.23 in 10.0 mi NE 9.2 mph - N/A   Clear
6:35 AM 68.0 °F - 57.2 °F 68% 30.23 in 10.0 mi NNE 9.2 mph - N/A   Clear
6:55 AM 68.0 °F - 57.2 °F 68% 30.24 in 10.0 mi NNE 8.1 mph - N/A   Clear
7:15 AM 69.8 °F - 57.2 °F 64% 30.24 in 10.0 mi NNE 8.1 mph - N/A   Clear
7:35 AM 71.6 °F - 59.0 °F 64% 30.24 in 10.0 mi NNE 5.8 mph - N/A   Clear
7:55 AM 71.6 °F - 59.0 °F 64% 30.25 in 10.0 mi NNE 4.6 mph - N/A   Clear
8:15 AM 73.4 °F - 59.0 °F 61% 30.25 in 10.0 mi Calm Calm - N/A   Clear
8:35 AM 77.0 °F - 59.0 °F 54% 30.25 in 10.0 mi SE 3.5 mph - N/A   Clear
8:55 AM 77.0 °F - 60.8 °F 57% 30.25 in 10.0 mi SSE 4.6 mph - N/A   Clear
9:15 AM 78.8 °F - 60.8 °F 54% 30.25 in 10.0 mi SSE 3.5 mph - N/A   Clear
9:35 AM 78.8 °F - 60.8 °F 54% 30.25 in 10.0 mi SSE 5.8 mph - N/A   Clear
9:50 AM 80.6 °F 81.5 °F 60.8 °F 51% 30.25 in 10.0 mi West 3.5 mph - N/A   Clear
10:20 AM 82.4 °F 82.9 °F 60.8 °F 48% 30.25 in 10.0 mi SSE 4.6 mph - N/A   Clear
10:35 AM 84.2 °F 84.4 °F 60.8 °F 45% 30.25 in 10.0 mi South 5.8 mph - N/A   Clear
10:55 AM 82.4 °F 82.9 °F 60.8 °F 48% 30.25 in 10.0 mi South 5.8 mph - N/A   Clear
11:15 AM 82.4 °F 82.9 °F 60.8 °F 48% 30.24 in 10.0 mi SW 4.6 mph - N/A   Clear
11:40 AM 82.4 °F 82.5 °F 59.0 °F 45% 30.23 in 10.0 mi NW 4.6 mph - N/A   Clear
12:15 PM 86.0 °F 85.4 °F 59.0 °F 40% 30.22 in 10.0 mi WNW 4.6 mph - N/A   Clear
12:35 PM 86.0 °F 85.4 °F 59.0 °F 40% 30.21 in 10.0 mi WNW 4.6 mph - N/A   Clear
12:55 PM 86.0 °F 84.5 °F 55.4 °F 35% 30.21 in 10.0 mi SSW 3.5 mph - N/A   Clear
1:15 PM 87.8 °F 86.5 °F 57.2 °F 35% 30.19 in 10.0 mi SSW 6.9 mph - N/A   Clear
1:35 PM 87.8 °F 86.5 °F 57.2 °F 35% 30.19 in 10.0 mi WNW 3.5 mph - N/A   Scattered Clouds
1:55 PM 89.6 °F 88.1 °F 57.2 °F 33% 30.18 in 10.0 mi NW 8.1 mph - N/A   Scattered Clouds
2:15 PM 87.8 °F 86.1 °F 55.4 °F 33% 30.17 in 10.0 mi WNW 8.1 mph - N/A   Clear
2:35 PM 86.0 °F 84.5 °F 55.4 °F 35% 30.16 in 10.0 mi West 4.6 mph - N/A   Clear
2:55 PM 87.8 °F 86.1 °F 55.4 °F 33% 30.15 in 10.0 mi Calm Calm - N/A Thunderstorm Clear
3:15 PM 87.8 °F 85.7 °F 53.6 °F 31% 30.15 in 10.0 mi WNW 8.1 mph - N/A   Clear
3:35 PM 87.8 °F 86.1 °F 55.4 °F 33% 30.15 in 10.0 mi West 8.1 mph - N/A Thunderstorm Clear
3:55 PM 86.0 °F 86.1 °F 60.8 °F 43% 30.15 in 10.0 mi SSE 12.7 mph 20.7 mph N/A Rain , Thunderstorm Light Thunderstorms and Rain
4:15 PM 80.6 °F 83.2 °F 68.0 °F 65% 30.15 in 10.0 mi SE 15.0 mph 18.4 mph N/A Rain , Thunderstorm Rain
4:30 PM 78.8 °F - 68.0 °F 69% 30.15 in 10.0 mi ESE 15.0 mph - N/A Rain , Thunderstorm Rain
5:15 PM 78.8 °F - 59.0 °F 51% 30.14 in 10.0 mi SE 8.1 mph - N/A   Clear
5:35 PM 78.8 °F - 59.0 °F 51% 30.14 in 10.0 mi Calm Calm - N/A   Clear
5:55 PM 80.6 °F 81.5 °F 60.8 °F 51% 30.14 in 10.0 mi NNW 5.8 mph - N/A   Clear
6:15 PM 80.6 °F 81.1 °F 59.0 °F 48% 30.14 in 10.0 mi NNW 6.9 mph - N/A   Clear
6:35 PM 80.6 °F 81.5 °F 60.8 °F 51% 30.15 in 10.0 mi NW 3.5 mph - N/A   Clear
6:55 PM 78.8 °F - 60.8 °F 54% 30.15 in 10.0 mi NNW 3.5 mph - N/A   Mostly Cloudy
7:15 PM 78.8 °F - 60.8 °F 54% 30.15 in 10.0 mi NNE 6.9 mph - N/A   Scattered Clouds
7:55 PM 80.6 °F 81.1 °F 59.0 °F 48% 30.15 in 10.0 mi ENE 6.9 mph - N/A   Clear
8:15 PM 80.6 °F 80.8 °F 57.2 °F 45% 30.15 in 10.0 mi NE 10.4 mph - N/A   Clear
8:35 PM 78.8 °F - 59.0 °F 51% 30.17 in 10.0 mi NNE 11.5 mph - N/A   Clear
9:00 PM 77.0 °F - 59.0 °F 54% 30.18 in 10.0 mi SSE 6.9 mph - N/A   Scattered Clouds
9:15 PM 77.0 °F - 59.0 °F 54% 30.18 in 10.0 mi South 3.5 mph - N/A   Scattered Clouds
9:35 PM 77.0 °F - 60.8 °F 57% 30.19 in 10.0 mi SSE 4.6 mph - N/A   Clear
9:55 PM 77.0 °F - 59.0 °F 54% 30.18 in 10.0 mi Calm Calm - N/A   Clear
10:15 PM 77.0 °F - 57.2 °F 50% 30.18 in 10.0 mi NE 6.9 mph - N/A   Clear
10:35 PM 73.4 °F - 59.0 °F 61% 30.19 in 10.0 mi NNE 8.1 mph - N/A   Clear
10:55 PM 77.0 °F - 55.4 °F 47% 30.19 in 10.0 mi NE 4.6 mph - N/A   Clear
11:15 PM 75.2 °F - 57.2 °F 53% 30.19 in 10.0 mi NNE 9.2 mph - N/A   Clear
11:35 PM 75.2 °F - 57.2 °F 53% 30.19 in 10.0 mi NE 10.4 mph - N/A   Clear
11:55 PM 73.4 °F - 57.2 °F 57% 30.18 in 10.0 mi NNE 11.5 mph - N/A   Clear